Simultaneous Nadir Overpasses (SNOs) Predictions

Prediction of SNOs between FY3D and AQUA Satellite Orbit:

Table of predicted SNOs for the next 14.0 days since TLE Epoch: 5/4/2024
Index Date (FY3D) Time (FY3D) Lat,Lon (FY3D) SZA (FY3D ) Date (AQUA) Time (AQUA) Lat,Lon (AQUA) SZA (AQUA ) Distance(km) Time Diff (sec)
1 05/05/2024 04:19:25 79.48, 95.13 63.66 05/05/2024 04:20:29 79.48, 95.10 63.65 0.91 64
2 05/05/2024 05:10:02 -79.22, -95.44 116.73 05/05/2024 05:09:44 -79.22, -95.48 116.72 0.92 18
3 05/07/2024 17:13:48 79.30, -96.95 62.69 05/07/2024 17:13:53 79.30, -96.96 62.69 0.28 5
4 05/07/2024 18:02:04 -72.84, 96.26 124.18 05/07/2024 18:00:51 -72.50, 94.19 124.62 78.29 73
5 05/10/2024 05:17:34 -79.41, -98.76 117.82 05/10/2024 05:18:01 -79.41, -98.68 117.83 1.52 27
6 05/10/2024 06:08:12 79.16, 70.61 61.81 05/10/2024 06:07:17 79.15, 70.69 61.82 1.76 55
7 05/12/2024 17:21:18 79.44, -99.91 61.60 05/12/2024 17:22:07 79.45, -99.95 61.59 0.99 49
8 05/12/2024 18:11:54 -79.14, 69.86 118.85 05/12/2024 18:11:21 -79.15, 69.73 118.83 2.84 33
9 05/15/2024 05:25:03 -79.52,-101.47 118.89 05/15/2024 05:26:12 -79.52,-101.41 118.92 1.30 69
10 05/15/2024 06:15:42 79.32, 67.60 60.80 05/15/2024 06:15:29 79.31, 67.71 60.79 2.41 13
11 05/17/2024 18:19:24 -79.30, 66.85 119.79 05/17/2024 18:19:31 -79.30, 66.78 119.79 1.44 7



Historial Predications of SNOs between FY3D and AQUA
